Find Qianfan Xingzuo 08-02

NORAD ID: 69074 Int'l Des: 2026-104 Owner: YUANX Country: CN Constellation: spacesail operational
LEOCIRCULARPOLAR

現在のビュー

3D地球を読み込み中...

About Qianfan Xingzuo 08-02

Qianfan Xingzuo 08-02 (NORAD 69074) is a spacesail constellation satellite launched May 12, 2026 by YUANX of CN. It operates in LEO, CIRCULAR, POLAR orbit with a mass of 267.00 kg.

Qianfan Xingzuo 08-02について

説明を読み込み中...

次回通過

Passes for default location (London). Set your location on the main map for personalized predictions.

高度履歴

Loading altitude history...

軌道要素

1 69074U 26104B 26178.06279300 -.01716244 00000-0 -18387+1 0 9994
2 69074 88.9863 340.5472 0010086 42.9779 317.2173 13.77788570 6449
Epoch: Jun 27, 2026 • Age: 9 hours

現在のステータス

高度 979.2 km
速度 7.36 km/s
衛星直下点 -16.74°S, 87.52°W
打ち上げ日 May 12, 2026
運用期間 0.1 years
タイプ internet

技術仕様

分類 Payload
質量 267.00 kg
乾燥質量 267.00 kg
総質量 267.00 kg
長さ 0.30 m
直径 3.00 m
スパン 10.00 m
形状 Box+pan
製造者 SECM
バスタイプ Qianfan
フェーズステータス In Orbit
所有者/国 YUANX/CN

Most Searched